Regional Weather Roundup
Issued by NWS Cleveland, OH

Home | Current Version | Previous Version | Graphics & Text | Print | Product List | Glossary On
Versions: 1 2 3 4 5 6 7 8 9 10 11 12 13 14 15 16 17 18 19 20 21 22 23 24 25 26 27 28 29 30 31 32 33 34 35 36 37 38 39 40 41 42 43 44 45 46 47 48 49 50
000
ASUS41 KCLE 250910
RWRCLE
OHIO REGIONAL WEATHER ROUNDUP
NATIONAL WEATHER SERVICE CLEVELAND, OH
500 AM EDT WED APR 25 2018

NOTE: "FAIR" INDICATES FEW OR NO CLOUDS BELOW 12,000 FEET WITH NO
SIGNIFICANT WEATHER AND/OR OBSTRUCTIONS TO VISIBILITY.

OHZ001>008-015>018-024>027-034-035-043-044-251000-
   NORTHWEST OHIO

CITY           SKY/WX    TMP DP  RH WIND       PRES   REMARKS
DEFIANCE       CLOUDY    51  49  92 N7        29.91F FOG
FINDLAY        FOG       50  46  86 N9        29.88S VSB 1/4
TOLEDO EXPRESS CLOUDY    51  51 100 N6        29.90S FOG
TOLEDO EXEC    FOG       48  47  96 N6        29.91S VSB 3/4
LIMA           FOG       49  49 100 NW10      29.89S VSB 1/4
$$

OHZ009>014-019>023-028>033-038-089-251000-
   NORTHEAST OHIO

CITY           SKY/WX    TMP DP  RH WIND       PRES   REMARKS
CLE-HOPKINS    LGT RAIN  51  50  96 NE5       29.89F FOG
CLE-LAKEFRONT  LGT RAIN  45  43  93 NE6       29.86F
CUY CO. ARPT   NOT AVBL
LORAIN-ELYRIA  CLOUDY    50  46  86 NE9       29.87F FOG
ASHTABULA      CLOUDY    50  50 100 NE3       29.88F
AKRON-CANTON   LGT RAIN  51  48  89 NE3       29.86S FOG
WOOSTER        CLOUDY    50  50 100 CALM      29.86F FOG
MANSFIELD      FOG       50  50 100 NW3       29.86F VSB 1/2
YOUNGSTOWN     LGT RAIN  50  48  93 E6        29.86F
$$

OHZ042-051>053-060>062-070>072-077>081-251000-
  SOUTHWEST OHIO

CITY           SKY/WX    TMP DP  RH WIND       PRES   REMARKS
CINC-COVINGTON CLOUDY    53  51  93 NW8       29.88S FOG
CINC-LUNKEN    CLOUDY    54  52  93 N3        29.89R
HAMILTON       CLOUDY    54  51  90 NW7       29.89S
DAYTON         FOG       50  50 100 NW12      29.89S VSB 1/2
WRIGHT-PAT AFB CLOUDY    53  51  94 NW7       29.87S FOG
DAYTON GENERAL CLOUDY    53  51  93 N8        29.87S
WILMINGTON     FOG       54  53  97 N7        29.86S VSB 1
$$

OHZ036-037-039>041-045>050-054>059-063>069-073>076-082>088-251000-
  CENTRAL AND SOUTHEAST OHIO

CITY           SKY/WX    TMP DP  RH WIND       PRES   REMARKS
COLUMBUS       CLOUDY    53  51  93 N5        29.85F
OSU AIRPORT    FOG       52  52 100 N3        29.85F VSB 1
BOLTON FIELD   CLOUDY    52  52 100 N3        29.85F FOG
RICKENBACK AFB CLOUDY    52  52 100 CALM      29.85F FOG
NEWARK         CLOUDY    52  51  97 CALM      29.84F
MARION         CLOUDY    52  50  93 N5        29.87S FOG
LANCASTER      CLOUDY    52  52 100 N3        29.86S FOG
ZANESVILLE     CLOUDY    51  49  92 NW3       29.84F
NEW PHILLY     NOT AVBL
$$




USA.gov is the U.S. government's official web portal to all federal, state and local government web resources and services.